Reading, PA

2:55 AM EDT on May 24, 2018 (GMT -0400)
Reading Regional-Spaatz

Weather History for KRDG - September, 2013

Change the Weather History Date:

Saturday, September 28, 2013

  Actual Average Record
Temperature  
Mean Temperature 63 °F 60 °F  
Max Temperature 73 °F 71 °F 86 °F (1954)
Min Temperature 53 °F 50 °F 34 °F (1991)
Degree Days  
Heating Degree Days 2 6  
Month to date heating degree days 83 60  
Since 1 July heating degree days 83 65  
Cooling Degree Days 0 1  
Month to date cooling degree days 98 83  
Year to date cooling degree days 1082 886  
Growing Degree Days 13 (Base 50)    
Moisture  
Dew Point 51 °F    
Average Humidity 62    
Maximum Humidity 86    
Minimum Humidity 38    
Precipitation  
Precipitation 0.00 in 0.18 in 3.43 in (1985)
Month to date precipitation 1.31 4.00  
Year to date precipitation 30.45 32.96  
Sea Level Pressure  
Sea Level Pressure 30.29 in    
Wind  
Wind Speed 2 mph (NE)    
Max Wind Speed 10 mph    
Max Gust Speed 16 mph    
Visibility 10 miles    
Events      
T = Trace of Precipitation, MM = Missing Value Source: NWS Daily Summary

Daily Weather History Graph

Daily Weather History Graph

Search for Another Location

Airport or City:

Astronomy

Sep. 28, 2013 Rise Set
Actual Time 6:57 AM EDT 6:50 PM EDT
Civil Twilight 6:30 AM EDT 7:17 PM EDT
Nautical Twilight 5:58 AM EDT 7:49 PM EDT
Astronomical Twilight 5:26 AM EDT 8:21 PM EDT
Moon 12:42 AM EDT (9/28) 3:08 PM EDT (9/28)
Length of Visible Light 12h 47m
Length of Day
11h 53m
Last Quarter, 36% of the Moon is Illuminated
Sep 28
Last Quarter
Oct 4
New
Oct 11
First Quarter
Oct 18
Full
Oct 26
Last Quarter

Hourly Weather History & Observations

Time (EDT) Temp. Dew Point Humidity Pressure Visibility Wind Dir Wind Speed Gust Speed Precip Events Conditions
12:54 AM 54.0 °F 48.9 °F 83% 30.28 in 10.0 mi NW 3.5 mph - N/A   Scattered Clouds
1:54 AM 55.9 °F 52.0 °F 87% 30.29 in 10.0 mi Calm Calm - N/A   Overcast
2:54 AM 57.0 °F 52.0 °F 83% 30.28 in 10.0 mi Calm Calm - N/A   Overcast
3:54 AM 57.0 °F 53.1 °F 87% 30.28 in 10.0 mi Calm Calm - N/A   Overcast
4:54 AM 57.9 °F 53.1 °F 84% 30.29 in 10.0 mi Calm Calm - N/A   Overcast
5:54 AM 57.0 °F 53.1 °F 87% 30.30 in 10.0 mi Calm Calm - N/A   Overcast
6:54 AM 57.9 °F 54.0 °F 87% 30.31 in 10.0 mi NNW 3.5 mph - N/A   Overcast
7:54 AM 59.0 °F 54.0 °F 83% 30.32 in 10.0 mi North 3.5 mph - N/A   Overcast
8:54 AM 60.1 °F 53.1 °F 78% 30.33 in 10.0 mi North 3.5 mph - N/A   Overcast
9:54 AM 63.0 °F 52.0 °F 67% 30.34 in 10.0 mi Variable 4.6 mph - N/A   Scattered Clouds
10:54 AM 66.0 °F 51.1 °F 59% 30.34 in 10.0 mi NE 4.6 mph - N/A   Partly Cloudy
11:54 AM 69.1 °F 52.0 °F 54% 30.32 in 10.0 mi East 6.9 mph - N/A   Mostly Cloudy
12:54 PM 68.0 °F 48.9 °F 50% 30.31 in 10.0 mi ENE 4.6 mph - N/A   Partly Cloudy
1:54 PM 72.0 °F 50.0 °F 46% 30.29 in 10.0 mi Variable 6.9 mph - N/A   Mostly Cloudy
2:54 PM 71.1 °F 48.9 °F 45% 30.27 in 10.0 mi Calm Calm - N/A   Clear
3:54 PM 70.0 °F 48.0 °F 46% 30.26 in 10.0 mi ESE 4.6 mph - N/A   Clear
4:54 PM 72.0 °F 44.1 °F 37% 30.25 in 10.0 mi SE 4.6 mph - N/A   Scattered Clouds
5:54 PM 71.1 °F 46.9 °F 42% 30.25 in 10.0 mi East 6.9 mph - N/A   Mostly Cloudy
6:54 PM 66.9 °F 48.9 °F 52% 30.25 in 10.0 mi East 3.5 mph - N/A   Clear
7:54 PM 62.1 °F 50.0 °F 65% 30.26 in 10.0 mi Calm Calm - N/A   Clear
8:54 PM 60.1 °F 50.0 °F 69% 30.26 in 10.0 mi Calm Calm - N/A   Clear
9:54 PM 57.9 °F 50.0 °F 75% 30.26 in 10.0 mi Calm Calm - N/A   Clear
10:54 PM 57.0 °F 51.1 °F 81% 30.27 in 10.0 mi Calm Calm - N/A   Clear
11:54 PM 55.0 °F 50.0 °F 83% 30.25 in 10.0 mi Calm Calm - N/A   Clear